Simultaneous Nadir Overpasses (SNOs) Predictions

Prediction of SNOs between METOP-A and NOAA-19 Satellite Orbit:

Table of predicted SNOs for the next 14.0 days since TLE Epoch: 6/10/2016
Index Date (METOP-A) Time (METOP-A) Lat,Lon (METOP-A) SZA (METOP-A ) Date (NOAA-19) Time (NOAA-19) Lat,Lon (NOAA-19) SZA (NOAA-19 ) Distance(km) Time Diff (sec)
1 06/20/2016 12:58:27 -76.18, 165.87 127.34 06/20/2016 12:57:12 -76.15, 165.93 127.36 3.29 75
2 06/20/2016 13:49:07 76.18, -26.79 52.67 06/20/2016 13:48:18 76.16, -26.89 52.65 3.16 49
3 06/20/2016 14:39:49 -76.16, 140.46 127.36 06/20/2016 14:39:14 -76.15, 140.43 127.37 1.39 35
4 06/20/2016 15:30:30 76.11, -52.36 52.60 06/20/2016 15:30:19 76.12, -52.22 52.60 3.65 11
5 06/20/2016 16:21:11 -76.14, 115.06 127.38 06/20/2016 16:21:16 -76.15, 114.93 127.37 3.57 5
6 06/20/2016 17:11:52 76.09, -77.76 52.58 06/20/2016 17:12:21 76.11, -77.72 52.60 2.46 29
7 06/20/2016 18:02:33 -76.12, 89.65 127.40 06/20/2016 18:03:17 -76.10, 89.59 127.41 2.58 44
8 06/20/2016 18:53:14 76.07,-103.17 52.56 06/20/2016 18:54:22 76.07,-103.05 52.56 3.25 68
9 06/20/2016 19:44:03 -75.73, 63.02 127.78 06/20/2016 19:45:11 -75.74, 65.36 127.77 64.22 68




NCC Satellite Simultaneous Nadir Overpasses (SNOs) Prediction Service
